Location: *
(47.2969°N, 10.2930°E)
Time: 02:42:07
(UTC+00:00)

Meteor 2-17 Rocket - Pass Details

Date: 09 April 2020
Orbit: 935 x 956 km, 82.5° (Epoch: 04 June)

Event Time Altitude Azimuth Distance (km) Brightness Sun altitude
Rises 18:58:11 0° 350° (N) 3,644 8.0 -10.2°
Reaches altitude 10° 19:00:41 10° 351° (N) 2,696 7.3 -10.6°
Maximum altitude 19:06:53 87° 81° (E) 965 4.5 -11.5°
Drops below altitude 10° 19:13:02 10° 171° (S) 2,679 6.5 -12.4°
Sets 19:15:31 0° 172° (S) 3,620 7.1 -12.8°
